Portada
METAR-TAF:

METAR-TAF

Aeropuertos :

Barquisimeto, Venezuela

Aeropuerto Internacional Jacinto Lara

latitud: 10-04N, longitud: 069-19W, altitud: 613 m

Observación

El informe se hizo hace 2 horas y 50 minutos, a las 03:00 UTC
Viento 5 kt del este-sureste
Temperatura 23°C
Humedad 78%
Presión 1016 hPa
Visibilidad 10 km o más
Nubes dispersas a una altura de 1600 ft

METAR: SVBM 170300Z 11005KT 9999 SCT016 23/19 Q1016

Hora: 01:50 (05:50 UTC)


TAF: falta

Observaciones y pronósticos meteorológicos de más de 4000 aeropuertos (mensajes METAR y TAF).

Los puntos amarillos y rojos representan las estaciones disponibles.

Ponga el ratón en el punto deseado para ver el nombre de la estación.

Haga clic para ver las observaciones y los pronósticos meteorológicos.

Para cambiar el mapa : haga clic en los botones verdes con una cruz de color negro para hacer un zoom, en el botón verde con un guión para alejar o en las flechas verdes para mapas adyacentes.


METAR-TAF: